| time (UTC) | temp C | wind direction | speed KPH | gust KPH | rain 1hr cm | rain 24hr cm | rain mn cm | humidity % | barometer mb |
| 20260504012510 | 16 | 191 | 4.8 | 11.3 | 0.00 | 0.00 | 0.00 | 55 | 1008.9 |
| 20260504012017 | 16 | 198 | 4.8 | 16.1 | 0.00 | 0.00 | 0.00 | 54 | 1008.8 |
| 20260504011532 | 16 | 205 | 8.0 | 14.5 | 0.00 | 0.00 | 0.00 | 54 | 1008.8 |
| 20260504011010 | 16 | 219 | 6.4 | 14.5 | 0.00 | 0.00 | 0.00 | 53 | 1008.7 |
| 20260504010507 | 16 | 197 | 8.0 | 14.5 | 0.00 | 0.00 | 0.00 | 52 | 1008.7 |
| 20260504010031 | 16 | 161 | 4.8 | 12.9 | 0.00 | 0.00 | 0.00 | 52 | 1008.8 |
| 20260504005510 | 17 | 219 | 6.4 | 9.7 | 0.00 | 0.00 | 0.00 | 51 | 1008.8 |
| 20260504005010 | 17 | 205 | 6.4 | 20.9 | 0.00 | 0.00 | 0.00 | 50 | 1008.8 |
| 20260504004534 | 17 | 187 | 9.7 | 20.9 | 0.00 | 0.00 | 0.00 | 50 | 1008.7 |
| 20260504004012 | 17 | 217 | 8.0 | 17.7 | 0.00 | 0.00 | 0.00 | 50 | 1008.8 |
| 20260504003511 | 17 | 209 | 9.7 | 20.9 | 0.00 | 0.00 | 0.00 | 48 | 1008.8 |
| 20260504003038 | 17 | 210 | 9.7 | 22.5 | 0.00 | 0.00 | 0.00 | 48 | 1008.8 |
| 20260504002509 | 18 | 252 | 12.9 | 25.7 | 0.00 | 0.00 | 0.00 | 48 | 1008.8 |
| 20260504002013 | 18 | 228 | 16.1 | 25.7 | 0.00 | 0.00 | 0.00 | 48 | 1008.8 |
| 20260504001533 | 18 | 226 | 12.9 | 25.7 | 0.00 | 0.00 | 0.00 | 47 | 1008.8 |
| 20260504001008 | 18 | 212 | 17.7 | 22.5 | 0.00 | 0.00 | 0.00 | 47 | 1008.9 |
| 20260504000514 | 18 | 217 | 12.9 | 20.9 | 0.00 | 0.00 | 0.00 | 47 | 1008.9 |
| 20260504000030 | 18 | 207 | 11.3 | 19.3 | 0.00 | 0.00 | 0.00 | 47 | 1008.9 |
| 20260503235508 | 18 | 208 | 14.5 | 19.3 | 0.00 | 0.00 | 0.00 | 47 | 1008.9 |
| 20260503235011 | 18 | 221 | 16.1 | 24.1 | 0.00 | 0.00 | 0.00 | 48 | 1008.9 |
| 20260503234543 | 18 | 225 | 16.1 | 27.4 | 0.00 | 0.00 | 0.00 | 47 | 1009.0 |
| 20260503234007 | 18 | 216 | 16.1 | 22.5 | 0.00 | 0.00 | 0.00 | 47 | 1009.1 |
| 20260503233509 | 18 | 219 | 14.5 | 27.4 | 0.00 | 0.00 | 0.00 | 48 | 1009.1 |
| 20260503233034 | 18 | 219 | 19.3 | 32.2 | 0.00 | 0.00 | 0.00 | 47 | 1009.1 |
| 20260503232513 | 18 | 206 | 16.1 | 32.2 | 0.00 | 0.00 | 0.00 | 46 | 1009.1 |
| 20260503232011 | 18 | 230 | 16.1 | 32.2 | 0.00 | 0.00 | 0.00 | 47 | 1009.2 |
| 20260503231532 | 18 | 205 | 19.3 | 32.2 | 0.00 | 0.00 | 0.00 | 47 | 1009.2 |
| 20260503231013 | 18 | 202 | 14.5 | 30.6 | 0.00 | 0.00 | 0.00 | 47 | 1009.3 |
| 20260503230516 | 17 | 221 | 16.1 | 30.6 | 0.00 | 0.00 | 0.00 | 49 | 1009.3 |
| 20260503230039 | 17 | 228 | 14.5 | 20.9 | 0.00 | 0.00 | 0.00 | 50 | 1009.3 |
| 20260503225516 | 17 | 261 | 14.5 | 30.6 | 0.00 | 0.00 | 0.00 | 50 | 1009.4 |
| 20260503225015 | 17 | 219 | 16.1 | 30.6 | 0.00 | 0.00 | 0.00 | 50 | 1009.6 |
| 20260503224527 | 17 | 233 | 19.3 | 32.2 | 0.00 | 0.00 | 0.00 | 50 | 1009.6 |
| 20260503224009 | 17 | 219 | 20.9 | 37.0 | 0.00 | 0.00 | 0.00 | 49 | 1009.7 |
| 20260503223514 | 17 | 212 | 24.1 | 37.0 | 0.00 | 0.00 | 0.00 | 47 | 1009.7 |
| 20260503223029 | 18 | 217 | 24.1 | 33.8 | 0.00 | 0.00 | 0.00 | 46 | 1009.7 |
| 20260503222510 | 18 | 165 | 17.7 | 40.2 | 0.00 | 0.00 | 0.00 | 47 | 1009.7 |
| 20260503222017 | 17 | 221 | 22.5 | 40.2 | 0.00 | 0.00 | 0.00 | 47 | 1009.9 |
| 20260503221532 | 17 | 230 | 27.4 | 40.2 | 0.00 | 0.00 | 0.00 | 48 | 1010.0 |
| 20260503221013 | 17 | 214 | 30.6 | 53.1 | 0.00 | 0.00 | 0.00 | 46 | 1009.9 |
| 20260503220517 | 18 | 212 | 33.8 | 46.7 | 0.00 | 0.00 | 0.00 | 46 | 1010.0 |
| 20260503220044 | 17 | 194 | 27.4 | 40.2 | 0.00 | 0.00 | 0.00 | 46 | 1010.0 |
| 20260503215517 | 17 | 228 | 24.1 | 40.2 | 0.00 | 0.00 | 0.00 | 47 | 1010.0 |
| 20260503215015 | 17 | 205 | 27.4 | 40.2 | 0.00 | 0.00 | 0.00 | 47 | 1010.0 |
| 20260503214531 | 17 | 207 | 24.1 | 40.2 | 0.00 | 0.00 | 0.00 | 47 | 1009.9 |
| 20260503214011 | 17 | 213 | 12.9 | 35.4 | 0.00 | 0.00 | 0.00 | 48 | 1009.8 |
| 20260503213514 | 16 | 214 | 20.9 | 41.8 | 0.00 | 0.00 | 0.00 | 47 | 1009.9 |
| 20260503213029 | 17 | 264 | 24.1 | 41.8 | 0.00 | 0.00 | 0.00 | 46 | 1010.0 |
| 20260503212510 | 17 | 212 | 25.7 | 41.8 | 0.00 | 0.00 | 0.00 | 45 | 1010.0 |
| 20260503212011 | 17 | 191 | 25.7 | 38.6 | 0.00 | 0.00 | 0.00 | 45 | 1010.2 |
| 20260503211531 | 17 | 212 | 27.4 | 45.1 | 0.00 | 0.00 | 0.00 | 46 | 1010.2 |
| 20260503211015 | 17 | 323 | 29.0 | 45.1 | 0.00 | 0.00 | 0.00 | 44 | 1010.3 |
| 20260503210511 | 17 | 227 | 27.4 | 46.7 | 0.00 | 0.00 | 0.00 | 45 | 1010.3 |
| 20260503210031 | 17 | 195 | 27.4 | 46.7 | 0.00 | 0.00 | 0.00 | 45 | 1010.4 |
| 20260503205514 | 17 | 212 | 19.3 | 41.8 | 0.00 | 0.00 | 0.00 | 47 | 1010.5 |
| 20260503205005 | 17 | 220 | 22.5 | 46.7 | 0.00 | 0.00 | 0.00 | 46 | 1010.5 |
| 20260503204506 | 17 | 218 | 27.4 | 46.7 | 0.00 | 0.00 | 0.00 | 47 | 1010.7 |
| 20260503204009 | 17 | 214 | 20.9 | 33.8 | 0.00 | 0.00 | 0.00 | 47 | 1010.7 |
| 20260503203504 | 16 | 199 | 19.3 | 43.5 | 0.00 | 0.00 | 0.00 | 46 | 1010.7 |
| 20260503203018 | 17 | 275 | 25.7 | 46.7 | 0.00 | 0.00 | 0.00 | 45 | 1010.7 |
| 20260503202506 | 17 | 216 | 20.9 | 45.1 | 0.00 | 0.00 | 0.00 | 47 | 1010.8 |
| 20260503202004 | 16 | 212 | 29.0 | 43.5 | 0.00 | 0.00 | 0.00 | 46 | 1010.9 |
| 20260503201508 | 16 | 224 | 20.9 | 43.5 | 0.00 | 0.00 | 0.00 | 45 | 1011.0 |
| 20260503201006 | 16 | 208 | 24.1 | 41.8 | 0.00 | 0.00 | 0.00 | 45 | 1011.1 |
| 20260503200505 | 16 | 236 | 20.9 | 41.8 | 0.00 | 0.00 | 0.00 | 45 | 1011.2 |
| 20260503200008 | 16 | 205 | 25.7 | 45.1 | 0.00 | 0.00 | 0.00 | 44 | 1011.3 |
| 20260503195503 | 16 | 204 | 20.9 | 45.1 | 0.00 | 0.00 | 0.00 | 43 | 1011.3 |
| 20260503195005 | 16 | 198 | 25.7 | 45.1 | 0.00 | 0.00 | 0.00 | 45 | 1011.3 |
| 20260503194507 | 16 | 213 | 27.4 | 37.0 | 0.00 | 0.00 | 0.00 | 44 | 1011.4 |
| 20260503194005 | 16 | 226 | 22.5 | 37.0 | 0.00 | 0.00 | 0.00 | 44 | 1011.4 |
| 20260503193508 | 16 | 203 | 17.7 | 37.0 | 0.00 | 0.00 | 0.00 | 43 | 1011.6 |
| 20260503193011 | 16 | 216 | 20.9 | 32.2 | 0.00 | 0.00 | 0.00 | 43 | 1011.6 |
| 20260503192505 | 16 | 207 | 16.1 | 38.6 | 0.00 | 0.00 | 0.00 | 43 | 1011.8 |
| 20260503192005 | 16 | 175 | 17.7 | 46.7 | 0.00 | 0.00 | 0.00 | 44 | 1012.0 |
| 20260503191518 | 16 | 219 | 32.2 | 45.1 | 0.00 | 0.00 | 0.00 | 45 | 1012.2 |
| 20260503191009 | 16 | 220 | 20.9 | 43.5 | 0.00 | 0.00 | 0.00 | 44 | 1012.1 |
| 20260503190504 | 16 | 220 | 24.1 | 38.6 | 0.00 | 0.00 | 0.00 | 43 | 1012.2 |
| 20260503190008 | 16 | 225 | 25.7 | 37.0 | 0.00 | 0.00 | 0.00 | 43 | 1012.4 |
| 20260503185503 | 16 | 205 | 17.7 | 25.7 | 0.00 | 0.00 | 0.00 | 44 | 1012.5 |
| 20260503185006 | 16 | 224 | 19.3 | 30.6 | 0.00 | 0.00 | 0.00 | 44 | 1012.6 |
| 20260503184509 | 16 | 219 | 19.3 | 37.0 | 0.00 | 0.00 | 0.00 | 46 | 1012.7 |
| 20260503184004 | 16 | 224 | 16.1 | 40.2 | 0.00 | 0.00 | 0.00 | 45 | 1012.7 |
| 20260503183505 | 16 | 221 | 22.5 | 40.2 | 0.00 | 0.00 | 0.00 | 45 | 1012.8 |
| 20260503183010 | 16 | 208 | 22.5 | 38.6 | 0.00 | 0.00 | 0.00 | 45 | 1013.0 |
| 20260503182507 | 16 | 207 | 29.0 | 38.6 | 0.00 | 0.00 | 0.00 | 45 | 1013.1 |
| 20260503182006 | 16 | 207 | 14.5 | 29.0 | 0.00 | 0.00 | 0.00 | 46 | 1013.2 |
| 20260503181510 | 16 | 238 | 14.5 | 29.0 | 0.00 | 0.00 | 0.00 | 47 | 1013.5 |
| 20260503181006 | 15 | 201 | 11.3 | 27.4 | 0.00 | 0.00 | 0.00 | 49 | 1013.7 |
| 20260503180504 | 15 | 220 | 19.3 | 24.1 | 0.00 | 0.00 | 0.00 | 52 | 1014.1 |
| 20260503180017 | 14 | 244 | 12.9 | 29.0 | 0.00 | 0.00 | 0.00 | 52 | 1014.2 |
| 20260503175503 | 14 | 231 | 16.1 | 25.7 | 0.00 | 0.00 | 0.00 | 52 | 1014.2 |
| 20260503175007 | 14 | 219 | 14.5 | 25.7 | 0.00 | 0.00 | 0.00 | 51 | 1014.3 |
| 20260503174527 | 14 | 229 | 14.5 | 27.4 | 0.00 | 0.00 | 0.00 | 51 | 1014.6 |
| 20260503174011 | 14 | 248 | 16.1 | 25.7 | 0.00 | 0.00 | 0.00 | 50 | 1014.7 |
| 20260503173512 | 14 | 217 | 16.1 | 32.2 | 0.00 | 0.00 | 0.00 | 51 | 1014.6 |
| 20260503173034 | 14 | 231 | 20.9 | 32.2 | 0.00 | 0.00 | 0.00 | 51 | 1014.6 |
| 20260503172514 | 14 | 217 | 12.9 | 33.8 | 0.00 | 0.00 | 0.00 | 52 | 1014.6 |
| 20260503172010 | 14 | 206 | 19.3 | 29.0 | 0.00 | 0.00 | 0.00 | 50 | 1014.7 |
| 20260503171532 | 14 | 245 | 19.3 | 29.0 | 0.00 | 0.00 | 0.00 | 50 | 1014.6 |
| 20260503171011 | 14 | 214 | 20.9 | 29.0 | 0.00 | 0.00 | 0.00 | 52 | 1014.6 |
| 20260503170510 | 14 | 212 | 19.3 | 32.2 | 0.00 | 0.00 | 0.00 | 52 | 1014.6 |
| 20260503150512 | 12 | 236 | 29.0 | 37.0 | 0.00 | 0.00 | 0.00 | 58 | 1016.1 |
| 20260503131010 | 10 | 210 | 19.3 | 30.6 | 0.00 | 0.00 | 0.00 | 60 | 1017.3 |
| 20260503130508 | 10 | 219 | 19.3 | 30.6 | 0.00 | 0.00 | 0.00 | 59 | 1017.4 |
| 20260503110510 | 6 | 242 | 11.3 | 19.3 | 0.00 | 0.00 | 0.00 | 67 | 1016.8 |
| 20260503090508 | 5 | 206 | 11.3 | 19.3 | 0.00 | 0.00 | 0.00 | 65 | 1017.1 |
| 20260503081532 | 6 | 221 | 11.3 | 16.1 | 0.00 | 0.00 | 0.00 | 63 | 1017.1 |
| 20260503081009 | 5 | 223 | 9.7 | 16.1 | 0.00 | 0.00 | 0.00 | 64 | 1017.2 |
| 20260503080511 | 6 | 240 | 9.7 | 14.5 | 0.00 | 0.00 | 0.00 | 63 | 1017.3 |
| 20260503072512 | 5 | 234 | 8.0 | 9.7 | 0.00 | 0.00 | 0.00 | 65 | 1017.3 |
| 20260503072010 | 5 | 234 | 8.0 | 9.7 | 0.00 | 0.00 | 0.00 | 67 | 1017.3 |
| 20260503071527 | 5 | 227 | 6.4 | 9.7 | 0.00 | 0.00 | 0.00 | 67 | 1017.4 |
| 20260503071009 | 5 | 227 | 8.0 | 9.7 | 0.00 | 0.00 | 0.00 | 67 | 1017.5 |
| 20260503070508 | 5 | 244 | 6.4 | 8.0 | 0.00 | 0.00 | 0.00 | 67 | 1017.5 |
| 20260503055011 | 6 | 236 | 6.4 | 11.3 | 0.00 | 0.00 | 0.00 | 63 | 1018.1 |
| 20260503054523 | 6 | 220 | 6.4 | 11.3 | 0.00 | 0.00 | 0.00 | 63 | 1018.1 |
| 20260503054011 | 6 | 211 | 8.0 | 11.3 | 0.00 | 0.00 | 0.00 | 61 | 1018.1 |
| 20260503053509 | 6 | 211 | 6.4 | 9.7 | 0.00 | 0.00 | 0.00 | 62 | 1018.1 |
| 20260503053026 | 6 | 225 | 6.4 | 9.7 | 0.00 | 0.00 | 0.00 | 60 | 1018.1 |
| 20260503052511 | 6 | 224 | 6.4 | 8.0 | 0.00 | 0.00 | 0.00 | 60 | 1018.2 |
| 20260503052008 | 6 | 219 | 4.8 | 11.3 | 0.00 | 0.00 | 0.00 | 59 | 1018.2 |
| 20260503051525 | 6 | 229 | 6.4 | 11.3 | 0.00 | 0.00 | 0.00 | 60 | 1018.3 |
| 20260503051009 | 7 | 224 | 6.4 | 11.3 | 0.00 | 0.00 | 0.00 | 58 | 1018.3 |
| 20260503050507 | 7 | 207 | 6.4 | 11.3 | 0.00 | 0.00 | 0.00 | 59 | 1018.2 |
| 20260503050012 | 7 | 246 | 6.4 | 9.7 | 0.00 | 0.00 | 0.00 | 1018.3 | |
| 20260503045504 | 7 | 229 | 6.4 | 9.7 | 0.00 | 0.00 | 0.00 | 56 | 1018.3 |
| 20260503045010 | 7 | 222 | 4.8 | 8.0 | 0.00 | 0.00 | 0.00 | 56 | 1018.3 |
| 20260503044523 | 7 | 223 | 6.4 | 8.0 | 0.00 | 0.00 | 0.00 | 55 | 1018.3 |
| 20260503044010 | 7 | 225 | 4.8 | 9.7 | 0.00 | 0.00 | 0.00 | 55 | 1018.3 |
| 20260503043509 | 7 | 217 | 3.2 | 8.0 | 0.00 | 0.00 | 0.00 | 55 | 1018.2 |
| 20260503043027 | 7 | 226 | 4.8 | 9.7 | 0.00 | 0.00 | 0.00 | 55 | 1018.3 |
| 20260503042510 | 7 | 219 | 6.4 | 9.7 | 0.00 | 0.00 | 0.00 | 56 | 1018.3 |
| 20260503042010 | 7 | 217 | 8.0 | 9.7 | 0.00 | 0.00 | 0.00 | 56 | 1018.3 |
| 20260503041527 | 7 | 234 | 6.4 | 11.3 | 0.00 | 0.00 | 0.00 | 55 | 1018.3 |
| 20260503041008 | 7 | 231 | 6.4 | 11.3 | 0.00 | 0.00 | 0.00 | 55 | 1018.2 |
| 20260503040511 | 7 | 225 | 4.8 | 8.0 | 0.00 | 0.00 | 0.00 | 54 | 1018.2 |
| 20260503040020 | 7 | 228 | 4.8 | 6.4 | 0.00 | 0.00 | 0.00 | 54 | 1018.2 |
| 20260503035508 | 8 | 235 | 3.2 | 6.4 | 0.00 | 0.00 | 0.00 | 54 | 1018.3 |
| 20260503035007 | 8 | 176 | 4.8 | 8.0 | 0.00 | 0.00 | 0.00 | 53 | 1018.3 |
| 20260503034536 | 7 | 217 | 4.8 | 6.4 | 0.00 | 0.00 | 0.00 | 53 | 1018.3 |
| 20260503034012 | 8 | 216 | 3.2 | 6.4 | 0.00 | 0.00 | 0.00 | 55 | 1018.4 |
| 20260503033510 | 8 | 211 | 3.2 | 6.4 | 0.00 | 0.00 | 0.00 | 54 | 1018.4 |
| 20260503033008 | 8 | 200 | 4.8 | 8.0 | 0.00 | 0.00 | 0.00 | 54 | 1018.4 |
| 20260503032510 | 8 | 225 | 3.2 | 8.0 | 0.00 | 0.00 | 0.00 | 52 | 1018.4 |
| 20260503032015 | 8 | 220 | 4.8 | 6.4 | 0.00 | 0.00 | 0.00 | 52 | 1018.5 |
| 20260503031515 | 8 | 227 | 3.2 | 6.4 | 0.00 | 0.00 | 0.00 | 52 | 1018.4 |
| 20260503031011 | 8 | 206 | 3.2 | 4.8 | 0.00 | 0.00 | 0.00 | 54 | 1018.4 |
| 20260503030508 | 8 | 214 | 1.6 | 4.8 | 0.00 | 0.00 | 0.00 | 52 | 1018.4 |
| 20260503030015 | 8 | 233 | 3.2 | 6.4 | 0.00 | 0.00 | 0.00 | 53 | 1018.4 |
| 20260503025508 | 8 | 224 | 3.2 | 6.4 | 0.00 | 0.00 | 0.00 | 54 | 1018.5 |
| 20260503025014 | 8 | 232 | 3.2 | 6.4 | 0.00 | 0.00 | 0.00 | 56 | 1018.5 |
| 20260503024522 | 8 | 228 | 3.2 | 4.8 | 0.00 | 0.00 | 0.00 | 56 | 1018.5 |
| 20260503024011 | 8 | 225 | 3.2 | 4.8 | 0.00 | 0.00 | 0.00 | 57 | 1018.5 |
| 20260503023508 | 8 | 231 | 3.2 | 4.8 | 0.00 | 0.00 | 0.00 | 55 | 1018.5 |
| 20260503023028 | 8 | 221 | 3.2 | 4.8 | 0.00 | 0.00 | 0.00 | 55 | 1018.4 |
| 20260503022509 | 8 | 232 | 3.2 | 3.2 | 0.00 | 0.00 | 0.00 | 56 | 1018.4 |
| 20260503022010 | 8 | 227 | 1.6 | 4.8 | 0.00 | 0.00 | 0.00 | 54 | 1018.4 |
| 20260503021525 | 8 | 236 | 3.2 | 3.2 | 0.00 | 0.00 | 0.00 | 55 | 1018.3 |
| 20260503021007 | 8 | 225 | 3.2 | 3.2 | 0.00 | 0.00 | 0.00 | 55 | 1018.4 |
| 20260503020510 | 8 | 229 | 3.2 | 3.2 | 0.00 | 0.00 | 0.00 | 61 | 1018.3 |
| 20260503020026 | 8 | 217 | 0.0 | 3.2 | 0.00 | 0.00 | 0.00 | 61 | 1018.3 |
| 20260503015509 | 8 | 229 | 0.0 | 1.6 | 0.00 | 0.00 | 0.00 | 59 | 1018.2 |
| 20260503015011 | 8 | 236 | 1.6 | 1.6 | 0.00 | 0.00 | 0.00 | 61 | 1018.2 |
| 20260503014538 | 8 | 230 | 0.0 | 0.0 | 0.00 | 0.00 | 0.00 | 55 | 1018.2 |
| 20260503014010 | 8 | 230 | 0.0 | 0.0 | 0.00 | 0.00 | 0.00 | 52 | 1018.1 |
| 20260503013509 | 8 | 229 | 0.0 | 3.2 | 0.00 | 0.00 | 0.00 | 55 | 1018.1 |
| 20260503013027 | 8 | 230 | 1.6 | 3.2 | 0.00 | 0.00 | 0.00 | 55 | 1018.1 |